This is the latest recevied weather packets stored in our database for station/object DW9280. If no packets are shown the sender has not sent any weather packets the latest 10 day(s).
| Time | Temp. | Humidity | Pressure | Rain* | Wind** | Luminosity | Snow |
|---|---|---|---|---|---|---|---|
| 1787828277 | 23.33° C | 73% | 1009.7 hPa | 0 mm | - | 691 W/m² | - |
| 1787827972 | 22.78° C | 73% | 1009.8 hPa | 0 mm | - | 257 W/m² | - |
| 1787827672 | 22.78° C | 73% | 1009.9 hPa | 0 mm | - | 179 W/m² | - |
| 1787827371 | 22.78° C | 73% | 1010.1 hPa | 0 mm | - | 149 W/m² | - |
| 1787827195 | 23.33° C | 73% | 1010.1 hPa | 0 mm | - | 130 W/m² | - |
| 1787826771 | 23.33° C | 73% | 1010 hPa | 0 mm | - | 186 W/m² | - |
| 1787826471 | 23.33° C | 73% | 1010 hPa | 0 mm | - | 262 W/m² | - |
| 1787826168 | 22.78° C | 74% | 1010 hPa | 0 mm | - | 304 W/m² | - |
| 1787825988 | 22.22° C | 75% | 1010.1 hPa | 0 mm | - | 329 W/m² | - |
| 1787825561 | 22.22° C | 75% | 1010.1 hPa | 0 mm | - | 211 W/m² | - |
| 1787825259 | 21.67° C | 75% | 1010.2 hPa | 0 mm | - | 144 W/m² | - |
| 1787824956 | 22.22° C | 76% | 1010.3 hPa | 0 mm | - | 121 W/m² | - |
| 1787824655 | 22.22° C | 76% | 1010.3 hPa | 0 mm | - | 141 W/m² | - |
| 1787824356 | 21.67° C | 76% | 1010.4 hPa | 0 mm | - | 135 W/m² | - |
| 1787824057 | 21.67° C | 77% | 1010.6 hPa | 0 mm | - | 107 W/m² | - |
| 1787823755 | 21.67° C | 77% | 1010.6 hPa | 0 mm | - | 134 W/m² | - |
| 1787823458 | 21.67° C | 78% | 1010.7 hPa | 0 mm | - | 174 W/m² | - |
| 1787823156 | 21.67° C | 78% | 1010.8 hPa | 0 mm | - | 169 W/m² | - |
| 1787822857 | 21.67° C | 78% | 1010.8 hPa | 0 mm | - | 121 W/m² | - |
| 1787822558 | 21.67° C | 77% | 1010.9 hPa | 0 mm | - | 137 W/m² | - |
| 1787822255 | 21.67° C | 77% | 1010.9 hPa | 0 mm | - | 171 W/m² | - |
| 1787821957 | 21.67° C | 78% | 1010.8 hPa | 0 mm | - | 248 W/m² | - |
| 1787821658 | 21.67° C | 78% | 1010.8 hPa | 0 mm | - | 334 W/m² | - |
| 1787821359 | 21.67° C | 79% | 1010.8 hPa | 0 mm | - | 267 W/m² | - |
| 1787821183 | 21.11° C | 79% | 1010.7 hPa | 0 mm | - | 272 W/m² | - |
* Rain latest hour (hover to see other rain measurements)
** Current wind speed in m/s (hover to see current wind gust speed)